When you browse on this site, cookies collect data to enhance your experience and personalize the content and advertising you see.
Visit our Privacy Policy to learn more. By continuing to use the site, you agree to this use of cookies and data.
  • En España
  • Lista de países
  • Para 7 días
  • Temperatura del agua
  • El tiempo en el mapa
  • Informadores
  • user-avatar
    Iniciar sesión

    Tiempo cada hora Coro

    Hoy, 3 Junio, Miércoles

    Tiempo Temperatura Precipitaciones Viento Presión Humedad
    00:00 +26°C° 0 mm 5 mps 756 mmHg 91%
    01:00 +26°C° 0 mm 5 mps 755 mmHg 90%
    02:00 +26°C° 0 mm 5 mps 755 mmHg 90%
    03:00 +26°C° 0 mm 5 mps 755 mmHg 90%
    04:00 +26°C° 0 mm 5 mps 755 mmHg 90%
    05:00 +27°C° 0 mm 5 mps 755 mmHg 87%
    06:00 +27°C° 0 mm 5 mps 756 mmHg 84%
    07:00 +28°C° 0 mm 5 mps 756 mmHg 81%
    08:00 +30°C° 0 mm 6 mps 756 mmHg 73%
    09:00 +32°C° 0 mm 6 mps 756 mmHg 66%
    10:00 +34°C° 0 mm 6 mps 756 mmHg 58%
    11:00 +35°C° 0 mm 6 mps 756 mmHg 54%
    12:00 +36°C° 0 mm 7 mps 755 mmHg 50%
    13:00 +38°C° 0 mm 8 mps 755 mmHg 46%
    14:00 +37°C° 0 mm 8 mps 754 mmHg 50%
    15:00 +35°C° 0 mm 8 mps 753 mmHg 53%
    16:00 +35°C° 0 mm 8 mps 753 mmHg 56%
    17:00 +33°C° 0 mm 8 mps 753 mmHg 64%
    18:00 +31°C° 0 mm 8 mps 754 mmHg 71%
    19:00 +28°C° 0 mm 7 mps 754 mmHg 79%
    20:00 +27°C° 0 mm 7 mps 755 mmHg 81%
    21:00 +27°C° 0 mm 7 mps 755 mmHg 82%
    22:00 +27°C° 0 mm 6 mps 755 mmHg 84%
    23:00 +27°C° 0 mm 6 mps 755 mmHg 85%

    Mañana, 4 Junio, Jueves

    Tiempo Temperatura Precipitaciones Viento Presión Humedad
    00:00 +27°C° 0 mm 6 mps 755 mmHg 86%
    01:00 +26°C° 0 mm 6 mps 755 mmHg 87%
    02:00 +26°C° 0 mm 6 mps 755 mmHg 88%
    03:00 +26°C° 0 mm 5 mps 755 mmHg 88%
    04:00 +26°C° 0 mm 5 mps 755 mmHg 89%
    05:00 +27°C° 0 mm 5 mps 755 mmHg 86%
    06:00 +28°C° 0 mm 6 mps 756 mmHg 82%
    07:00 +29°C° 0 mm 6 mps 756 mmHg 79%
    08:00 +30°C° 0 mm 6 mps 756 mmHg 71%
    09:00 +33°C° 0 mm 6 mps 756 mmHg 64%
    10:00 +35°C° 0 mm 6 mps 757 mmHg 56%
    11:00 +36°C° 0 mm 7 mps 756 mmHg 51%
    12:00 +38°C° 0 mm 7 mps 755 mmHg 46%
    13:00 +39°C° 0 mm 8 mps 755 mmHg 41%
    14:00 +38°C° 0 mm 8 mps 754 mmHg 43%
    15:00 +38°C° 0 mm 9 mps 754 mmHg 46%
    16:00 +37°C° 0 mm 9 mps 753 mmHg 48%
    17:00 +33°C° 0 mm 8 mps 754 mmHg 60%
    18:00 +31°C° 0 mm 8 mps 755 mmHg 71%
    19:00 +28°C° 0 mm 8 mps 755 mmHg 83%
    20:00 +28°C° 0.1 mm 7 mps 756 mmHg 84%
    21:00 +28°C° 0.1 mm 7 mps 756 mmHg 85%
    22:00 +28°C° 0.1 mm 7 mps 756 mmHg 86%
    23:00 +28°C° 0.1 mm 7 mps 756 mmHg 88%

    Pasado mañana, 5 Junio, Viernes

    Tiempo Temperatura Precipitaciones Viento Presión Humedad
    00:00 +27°C° 0.1 mm 6 mps 756 mmHg 89%
    01:00 +27°C° 0.1 mm 6 mps 755 mmHg 90%
    02:00 +27°C° 0 mm 6 mps 755 mmHg 91%
    03:00 +27°C° 0 mm 6 mps 755 mmHg 92%
    04:00 +27°C° 0 mm 6 mps 755 mmHg 92%
    05:00 +27°C° 0 mm 6 mps 756 mmHg 89%
    06:00 +28°C° 0 mm 6 mps 756 mmHg 85%
    07:00 +29°C° 0 mm 6 mps 757 mmHg 82%
    08:00 +30°C° 0 mm 6 mps 757 mmHg 76%
    09:00 +33°C° 0 mm 6 mps 757 mmHg 69%
    10:00 +34°C° 0 mm 7 mps 757 mmHg 63%
    11:00 +35°C° 0 mm 7 mps 756 mmHg 58%
    12:00 +37°C° 0 mm 8 mps 756 mmHg 53%
    13:00 +38°C° 0 mm 8 mps 755 mmHg 48%
    14:00 +38°C° 0 mm 8 mps 755 mmHg 53%
    15:00 +37°C° 0 mm 9 mps 754 mmHg 57%
    16:00 +35°C° 0 mm 9 mps 754 mmHg 61%
    17:00 +33°C° 0 mm 9 mps 754 mmHg 68%
    18:00 +31°C° 0 mm 8 mps 755 mmHg 75%
    19:00 +29°C° 0 mm 8 mps 755 mmHg 82%
    20:00 +29°C° 0 mm 7 mps 756 mmHg 84%
    21:00 +28°C° 0 mm 7 mps 756 mmHg 86%
    22:00 +28°C° 0 mm 7 mps 757 mmHg 87%
    23:00 +28°C° 0 mm 7 mps 756 mmHg 88%

    6 Junio, Sábado

    Tiempo Temperatura Precipitaciones Viento Presión Humedad
    00:00 +28°C° 0 mm 6 mps 756 mmHg 88%
    01:00 +28°C° 0 mm 6 mps 755 mmHg 89%
    02:00 +27°C° 0 mm 6 mps 755 mmHg 89%
    03:00 +27°C° 0 mm 6 mps 755 mmHg 90%
    04:00 +27°C° 0 mm 6 mps 755 mmHg 91%
    05:00 +28°C° 0 mm 6 mps 756 mmHg 88%
    06:00 +28°C° 0 mm 6 mps 756 mmHg 85%
    07:00 +29°C° 0 mm 6 mps 756 mmHg 82%
    08:00 +30°C° 0 mm 6 mps 757 mmHg 75%
    09:00 +33°C° 0 mm 6 mps 757 mmHg 69%
    10:00 +34°C° 0 mm 6 mps 757 mmHg 63%
    11:00 +35°C° 0 mm 6 mps 756 mmHg 60%
    12:00 +36°C° 0 mm 7 mps 755 mmHg 57%
    13:00 +38°C° 0 mm 8 mps 754 mmHg 54%
    14:00 +37°C° 0 mm 8 mps 754 mmHg 57%
    15:00 +37°C° 0 mm 8 mps 754 mmHg 60%
    16:00 +35°C° 0 mm 8 mps 753 mmHg 63%
    17:00 +33°C° 0 mm 8 mps 754 mmHg 70%
    18:00 +32°C° 0 mm 7 mps 754 mmHg 77%
    19:00 +29°C° 0 mm 7 mps 754 mmHg 85%
    20:00 +29°C° 0 mm 7 mps 755 mmHg 86%
    21:00 +28°C° 0 mm 6 mps 755 mmHg 88%
    22:00 +28°C° 0 mm 6 mps 756 mmHg 90%
    23:00 +28°C° 0 mm 6 mps 756 mmHg 90%

    7 Junio, Domingo

    Tiempo Temperatura Precipitaciones Viento Presión Humedad
    00:00 +28°C° 0 mm 6 mps 755 mmHg 90%
    01:00 +28°C° 0 mm 6 mps 755 mmHg 90%
    02:00 +28°C° 0 mm 6 mps 755 mmHg 91%
    03:00 +27°C° 0 mm 6 mps 755 mmHg 91%
    04:00 +27°C° 0 mm 5 mps 755 mmHg 91%
    05:00 +28°C° 0 mm 5 mps 756 mmHg 88%
    06:00 +29°C° 0 mm 5 mps 756 mmHg 85%
    07:00 +29°C° 0 mm 5 mps 756 mmHg 82%
    08:00 +32°C° 0 mm 5 mps 756 mmHg 73%
    09:00 +34°C° 0 mm 5 mps 756 mmHg 64%
    10:00 +36°C° 0 mm 5 mps 756 mmHg 55%
    11:00 +38°C° 0 mm 6 mps 756 mmHg 49%
    12:00 +40°C° 0 mm 7 mps 755 mmHg 44%
    13:00 +41°C° 0 mm 7 mps 755 mmHg 38%
    14:00 +40°C° 0.1 mm 7 mps 754 mmHg 43%
    15:00 +39°C° 0.1 mm 8 mps 754 mmHg 48%
    16:00 +38°C° 0.1 mm 8 mps 753 mmHg 53%
    17:00 +35°C° 0.1 mm 7 mps 754 mmHg 62%
    18:00 +32°C° 0.1 mm 7 mps 754 mmHg 72%
    19:00 +29°C° 0.1 mm 6 mps 755 mmHg 81%
    20:00 +29°C° 0.2 mm 6 mps 755 mmHg 83%
    21:00 +28°C° 0.2 mm 6 mps 756 mmHg 86%
    22:00 +28°C° 0.2 mm 5 mps 756 mmHg 89%
    23:00 +28°C° 0 mm 5 mps 756 mmHg 89%

    8 Junio, Lunes

    Tiempo Temperatura Precipitaciones Viento Presión Humedad
    00:00 +28°C° 0 mm 5 mps 756 mmHg 90%
    01:00 +27°C° 0 mm 5 mps 755 mmHg 91%
    02:00 +27°C° 0 mm 5 mps 755 mmHg 91%
    03:00 +27°C° 0 mm 5 mps 755 mmHg 90%
    04:00 +27°C° 0 mm 5 mps 755 mmHg 90%
    05:00 +28°C° 0 mm 5 mps 756 mmHg 87%
    06:00 +28°C° 0 mm 5 mps 756 mmHg 84%
    07:00 +29°C° 0 mm 6 mps 757 mmHg 81%
    08:00 +32°C° 0 mm 5 mps 757 mmHg 72%
    09:00 +34°C° 0 mm 5 mps 757 mmHg 63%
    10:00 +36°C° 0 mm 5 mps 757 mmHg 54%
    11:00 +38°C° 0 mm 6 mps 757 mmHg 50%
    12:00 +39°C° 0 mm 7 mps 756 mmHg 46%
    13:00 +40°C° 0 mm 7 mps 755 mmHg 42%
    14:00 +39°C° 0.2 mm 7 mps 755 mmHg 48%
    15:00 +38°C° 0.2 mm 7 mps 754 mmHg 54%
    16:00 +37°C° 0.2 mm 8 mps 754 mmHg 60%
    17:00 +34°C° 0.1 mm 7 mps 754 mmHg 68%
    18:00 +32°C° 0.1 mm 6 mps 755 mmHg 75%
    19:00 +29°C° 0.1 mm 5 mps 755 mmHg 83%
    20:00 +29°C° 0 mm 5 mps 756 mmHg 84%
    21:00 +28°C° 0 mm 5 mps 756 mmHg 86%
    22:00 +28°C° 0 mm 5 mps 757 mmHg 87%
    23:00 +28°C° 0 mm 5 mps 756 mmHg 88%
    Mostrar más